Weather History for KD50 - October, 2012

Change the Weather History Date:

Monday, October 29, 2012

  Actual Average (KISN) Record (KISN)
Temperature  
Mean Temperature 32 °F 37 °F  
Max Temperature 35 °F 49 °F 72 °F (1968)
Min Temperature 30 °F 25 °F -3 °F (1895)
Degree Days  
Heating Degree Days 32 28  
Month to date heating degree days 625  
Since 1 July heating degree days 971  
Cooling Degree Days 0 0  
Month to date cooling degree days 0  
Year to date cooling degree days 455  
Moisture  
Dew Point 32 °F    
Average Humidity 98    
Maximum Humidity 100    
Minimum Humidity 93    
Precipitation  
Precipitation 0.00 in 0.03 in 0.45 in (1927)
Month to date precipitation 0.87  
Year to date precipitation 13.05  
Sea Level Pressure  
Sea Level Pressure 29.99 in    
Wind  
Wind Speed 10 mph (ESE)    
Max Wind Speed 14 mph    
Max Gust Speed 18 mph    
Visibility 5 miles    
Events Fog , Rain    
T = Trace of Precipitation, MM = Missing Value Source: NWS Daily Summary

Daily Weather History Graph

Daily Weather History Graph

Search for Another Location

Airport or City:

Trip Planner

Search our weather history database for the weather conditions in past years. The results will help you decide how hot, cold, wet, or windy it might be!

Date:

Astronomy

Oct. 29, 2012 Rise Set
Actual Time 8:36 AM CDT 6:36 PM CDT
Civil Twilight 8:03 AM CDT 7:09 PM CDT
Nautical Twilight 7:26 AM CDT 7:46 PM CDT
Astronomical Twilight 6:49 AM CDT 8:23 PM CDT
Moon 6:25 PM CDT (10/29) 8:31 AM CDT (10/29)
Length of Visible Light 11h 06m
Length of Day
10h 00m
Full, 100% of the Moon is Illuminated
Oct 29
Full
Oct 29
Full
Nov 6
Last Quarter
Nov 13
New
Nov 20
First Quarter

Hourly Weather History & Observations

Time (CDT) Temp. Windchill Dew Point Humidity Pressure Visibility Wind Dir Wind Speed Gust Speed Precip Events Conditions
12:15 AM 32.0 °F 22.5 °F 30.2 °F 93% 29.98 in 10.0 mi ESE 12.7 mph - N/A   Overcast
12:35 AM 32.0 °F 23.0 °F 30.2 °F 93% 29.99 in 10.0 mi SE 11.5 mph - N/A   Overcast
12:55 AM 32.0 °F 22.1 °F 30.2 °F 93% 29.98 in 10.0 mi SE 13.8 mph 18.4 mph N/A   Overcast
1:15 AM 32.0 °F 23.6 °F 30.2 °F 93% 29.98 in 10.0 mi SE 10.4 mph - N/A   Overcast
1:35 AM 32.0 °F 23.6 °F 30.2 °F 93% 29.97 in 10.0 mi SE 10.4 mph - N/A   Overcast
1:55 AM 32.0 °F 23.6 °F 30.2 °F 93% 29.97 in 10.0 mi SE 10.4 mph - N/A   Overcast
2:15 AM 32.0 °F 24.8 °F 30.2 °F 93% 29.98 in 10.0 mi SE 8.1 mph - N/A   Overcast
2:35 AM 32.0 °F 24.2 °F 30.2 °F 93% 29.98 in 10.0 mi ESE 9.2 mph - N/A   Overcast
2:55 AM 32.0 °F 25.6 °F 30.2 °F 93% 29.99 in 10.0 mi ESE 6.9 mph - N/A   Overcast
3:15 AM 32.0 °F 25.6 °F 32.0 °F 100% 30.00 in 8.0 mi ESE 6.9 mph - N/A   Overcast
3:35 AM 32.0 °F 24.8 °F 32.0 °F 100% 29.99 in 7.0 mi ESE 8.1 mph - N/A   Overcast
3:55 AM 32.0 °F 24.8 °F 32.0 °F 100% 29.98 in 7.0 mi ESE 8.1 mph - N/A   Overcast
4:35 AM 32.0 °F 26.4 °F 32.0 °F 100% 29.99 in 6.0 mi East 5.8 mph - N/A   Overcast
4:55 AM 32.0 °F 26.4 °F 30.2 °F 93% 30.00 in 7.0 mi East 5.8 mph - N/A   Overcast
5:15 AM 30.2 °F 21.9 °F 28.4 °F 93% 29.99 in 8.0 mi East 9.2 mph - N/A   Overcast
5:35 AM 30.2 °F 21.3 °F 28.4 °F 93% 29.99 in 7.0 mi East 10.4 mph - N/A   Overcast
5:55 AM 30.2 °F 21.3 °F 30.2 °F 100% 30.00 in 7.0 mi East 10.4 mph - N/A   Overcast
6:15 AM 30.2 °F 22.6 °F 28.4 °F 93% 30.00 in 7.0 mi East 8.1 mph - N/A   Overcast
6:35 AM 30.2 °F 22.6 °F 30.2 °F 100% 29.99 in 5.0 mi ESE 8.1 mph - N/A   Overcast
6:55 AM 30.2 °F 22.6 °F 30.2 °F 100% 30.00 in 5.0 mi East 8.1 mph - N/A   Overcast
7:15 AM 30.2 °F 21.9 °F 30.2 °F 100% 29.99 in 4.0 mi East 9.2 mph - N/A   Overcast
7:35 AM 30.2 °F 21.3 °F 30.2 °F 100% 30.00 in 3.0 mi East 10.4 mph - N/A   Overcast
7:55 AM 30.2 °F 23.4 °F 30.2 °F 100% 30.00 in 3.0 mi East 6.9 mph - N/A   Overcast
8:15 AM 30.2 °F 23.4 °F 30.2 °F 100% 30.01 in 2.5 mi East 6.9 mph - N/A   Overcast
8:35 AM 30.2 °F 23.4 °F 30.2 °F 100% 30.01 in 1.5 mi East 6.9 mph - N/A   Overcast
8:55 AM 30.2 °F 23.4 °F 30.2 °F 100% 30.02 in 1.2 mi East 6.9 mph - N/A   Overcast
9:15 AM 30.2 °F 21.9 °F 30.2 °F 100% 30.02 in 0.8 mi East 9.2 mph - N/A   Overcast
9:35 AM 30.2 °F 21.9 °F 30.2 °F 100% 30.02 in 0.2 mi East 9.2 mph - N/A Fog Light Freezing Fog
9:55 AM 32.0 °F 24.8 °F 32.0 °F 100% 30.02 in 0.2 mi East 8.1 mph - N/A Fog Light Freezing Fog
10:15 AM 32.0 °F 24.2 °F 32.0 °F 100% 30.02 in 0.2 mi East 9.2 mph - N/A Fog Light Freezing Fog
10:35 AM 32.0 °F 24.8 °F 32.0 °F 100% 30.02 in 0.2 mi East 8.1 mph - N/A Fog Light Freezing Fog
10:55 AM 32.0 °F 24.2 °F 32.0 °F 100% 30.02 in 0.5 mi ESE 9.2 mph - N/A Fog Fog
11:15 AM 32.0 °F 23.0 °F 32.0 °F 100% 30.01 in 2.0 mi SE 11.5 mph - N/A   Overcast
11:35 AM 32.0 °F 23.0 °F 32.0 °F 100% 30.01 in 2.5 mi SE 11.5 mph - N/A   Overcast
11:55 AM 32.0 °F 23.6 °F 32.0 °F 100% 30.01 in 3.0 mi SE 10.4 mph - N/A   Overcast
12:15 PM 32.0 °F 23.6 °F 32.0 °F 100% 30.02 in 3.0 mi SE 10.4 mph - N/A   Overcast
12:55 PM 33.8 °F 25.8 °F 32.0 °F 93% 30.02 in 4.0 mi SE 10.4 mph - N/A   Overcast
1:35 PM 33.8 °F 26.4 °F 33.8 °F 100% 30.01 in 4.0 mi ESE 9.2 mph - N/A   Overcast
1:55 PM 33.8 °F 26.4 °F 33.8 °F 100% 30.01 in 5.0 mi ESE 9.2 mph - N/A   Overcast
2:15 PM 35.6 °F 28.6 °F 33.8 °F 93% 30.01 in 4.0 mi ESE 9.2 mph - N/A   Overcast
2:35 PM 35.6 °F 28.0 °F 33.8 °F 93% 30.00 in 5.0 mi ESE 10.4 mph - N/A   Overcast
2:55 PM 35.6 °F 29.2 °F 33.8 °F 93% 30.00 in 5.0 mi ESE 8.1 mph - N/A   Overcast
3:15 PM 35.6 °F 28.6 °F 33.8 °F 93% 30.00 in 6.0 mi ESE 9.2 mph - N/A   Overcast
3:35 PM 35.6 °F 27.5 °F 35.6 °F 100% 29.99 in 6.0 mi ESE 11.5 mph - N/A   Overcast
3:55 PM 35.6 °F 28.0 °F 35.6 °F 100% 29.99 in 7.0 mi SE 10.4 mph - N/A   Overcast
4:15 PM 35.6 °F 27.5 °F 35.6 °F 100% 29.98 in 6.0 mi ESE 11.5 mph - N/A   Overcast
4:35 PM 35.6 °F 27.5 °F 33.8 °F 93% 29.98 in 4.0 mi East 11.5 mph - N/A   Overcast
4:55 PM 33.8 °F 25.8 °F 33.8 °F 100% 29.98 in 3.0 mi East 10.4 mph - N/A   Overcast
5:15 PM 33.8 °F 25.3 °F 33.8 °F 100% 29.97 in 2.5 mi East 11.5 mph - N/A   Overcast
5:35 PM 33.8 °F 25.8 °F 33.8 °F 100% 29.97 in 3.0 mi East 10.4 mph - N/A   Overcast
5:55 PM 32.0 °F 23.6 °F 32.0 °F 100% 29.98 in 2.0 mi East 10.4 mph 16.1 mph N/A   Overcast
6:15 PM 32.0 °F 23.6 °F 32.0 °F 100% 29.99 in 1.8 mi East 10.4 mph - N/A   Overcast
6:35 PM 32.0 °F 23.6 °F 32.0 °F 100% 29.99 in 1.5 mi East 10.4 mph - N/A   Overcast
6:55 PM 32.0 °F 24.8 °F 32.0 °F 100% 29.99 in 2.0 mi East 8.1 mph - N/A Rain Light Rain
7:15 PM 32.0 °F 24.8 °F 32.0 °F 100% 29.99 in 2.5 mi East 8.1 mph - N/A Rain Light Rain
7:35 PM 32.0 °F 23.6 °F 32.0 °F 100% 29.99 in 1.8 mi ESE 10.4 mph - N/A Rain Light Rain
7:55 PM 32.0 °F 25.6 °F 32.0 °F 100% 30.00 in 1.8 mi East 6.9 mph - N/A Rain Light Rain
10:35 PM 32.0 °F 24.2 °F 32.0 °F 100% 29.98 in 3.0 mi East 9.2 mph - N/A   Overcast
10:55 PM 33.8 °F 27.7 °F 33.8 °F 100% 29.97 in 3.0 mi East 6.9 mph - N/A   Overcast
11:15 PM 33.8 °F 28.6 °F 33.8 °F 100% 29.97 in 3.0 mi ENE 5.8 mph - N/A   Overcast
11:35 PM 33.8 °F 30.8 °F 33.8 °F 100% 29.98 in 3.0 mi East 3.5 mph - N/A   Overcast
11:55 PM 35.6 °F 30.7 °F 35.6 °F 100% 29.97 in 2.5 mi ENE 5.8 mph - N/A Rain Light Rain